Home   Weather   Göttingen   Past weeks

Flag for Germany Past Weather in Göttingen, Lower Saxony, Germany — Yesterday and Last 2 Weeks

Now
39 °F

Mostly cloudy.


Feels Like: 32 °F
Forecast: 33 / 56 °F
Wind: 13 mph from West

Location: Kassel / Calden

Current Time: Apr 23, 2017 at 10:22:19 am

Latest Report: Apr 23, 2017 at 9:50 am


Visibility: N/A

Pressure: 30.21 "Hg

Humidity: 81%

Dew Point: 34 °F

Location of GöttingenLocation

Past Weather in Göttingen — Graph

°F

Göttingen Temperature Yesterday

Maximum temperature yesterday: 46 °F (at 1:20 pm)
Minimum temperature yesterday: 41 °F (at 7:20 am)
Average temperature yesterday: 44 °F

High & Low Weather Summary for the Past Weeks

 TemperatureHumidityPressure
High68 °F (Apr 9, 4:20 pm)100% (Apr 8, 8:20 am)30.60 "Hg (Apr 8, 8:20 am)
Low25 °F (Apr 20, 5:20 am)40% (Apr 9, 4:20 pm)29.83 "Hg (Apr 13, 3:20 am)
Average46 °F69%30.18 "Hg
* Reported Apr 8 8:20 am — Apr 23 8:50 am, Göttingen, Weather by CustomWeather, © 2017

Note: Actual official high and low records may vary slightly from our data, if they occured in-between our weather recording intervals... More about our weather records

Advertising

Göttingen Weather History for the Previous 24 Hours

Scroll right to see more
 ConditionsComfort  
Time TempWeatherWind HumidityBarometerVisibility
8:50 am
Sun, Apr 23
37 °FMostly cloudy.12 mph93%30.21 "HgN/A
8:20 am37 °FLight rain. Broken clouds.13 mph93%30.21 "HgN/A
7:50 am37 °FPartly sunny.12 mph87%30.18 "HgN/A
7:20 am37 °FPartly sunny.12 mph87%30.18 "HgN/A
7:50 pm
Sat, Apr 22
45 °FMore clouds than sun.13 mph53%30.15 "HgN/A
7:20 pm45 °FMore clouds than sun.13 mph53%30.15 "HgN/A
6:50 pm45 °FPartly sunny.15 mph53%30.15 "HgN/A
6:20 pm45 °FMore clouds than sun.17 mph53%30.15 "HgN/A
5:50 pm46 °FBroken clouds.18 mph50%30.15 "HgN/A
5:20 pm45 °FBroken clouds.18 mph61%30.15 "HgN/A
4:50 pm45 °FBroken clouds.15 mph66%30.15 "HgN/A
4:20 pm45 °FBroken clouds.14 mph61%30.15 "HgN/A
3:50 pm43 °FLight rain. Broken clouds.15 mph76%30.18 "HgN/A
3:20 pm45 °FMostly cloudy.20 mph61%30.18 "HgN/A
2:50 pm46 °FCloudy.17 mph53%30.18 "HgN/A
2:20 pm46 °FPartly sunny.18 mph57%30.18 "HgN/A
1:50 pm46 °FBroken clouds.18 mph53%30.18 "HgN/A
1:20 pm46 °FSprinkles. More clouds than sun.16 mph57%30.18 "HgN/A
12:50 pm45 °FSprinkles. Broken clouds.16 mph61%30.18 "HgN/A
12:20 pm45 °FBroken clouds.18 mph66%30.18 "HgN/A
11:50 am45 °FScattered showers. Cloudy.16 mph61%30.18 "HgN/A
11:20 am45 °FScattered showers. Broken clouds.17 mph71%30.18 "HgN/A
10:50 am43 °FBroken clouds.13 mph76%30.18 "HgN/A
10:20 am43 °FBroken clouds.14 mph76%30.18 "HgN/A
Weather by CustomWeather, © 2017

See weather overviewHow to use our weather pages